Location: Ferris
(32.5340°N, 96.6656°W)
Time: 10:05:08
(UTC+00:00)

Cosmos 372 Rocket - Pass Details

Date: 11 February 2026
Orbit: 732 x 763 km, 74.1° (Epoch: 7 March)

Event Time Altitude Azimuth Distance (km) Brightness Sun altitude
Rises 12:44:40 0° 196° (SSW) 3,141 7.1 -6.7°
Reaches altitude 10° 12:46:59 10° 197° (SSW) 2,224 6.4 -6.2°
Maximum altitude 12:52:01 85° 286° (WNW) 742 3.9 -5.1°
Drops below altitude 10° 12:57:07 10° 15° (NNE) 2,248 6.5 -4.1°
Sets 12:59:29 0° 16° (NNE) 3,178 7.2 -3.6°
